Regional Weather Roundup
Issued by NWS Grand Forks, ND

Home | Current Version | Previous Version | Text Only | Print | Product List | Glossary On
Versions: 1 2 3 4 5 6 7 8 9 10 11 12 13 14 15 16 17 18 19 20 21 22 23 24 25 26 27 28 29 30 31 32 33 34 35 36 37 38 39 40 41 42 43 44 45 46 47 48 49 50
000
ASUS43 KFGF 242131
RWRFGF
PRAIRIE TO PINES  WEATHER ROUNDUP
NATIONAL WEATHER SERVICE EASTERN NORTH DAKOTA/GRAND FORKS ND
400 PM CDT FRI MAR 24 2017

 **SATELLITE DATA USED TO AUGMENT SKY COVER AT AUTOMATED STATIONS**
 *****  WEATHER ACROSS EASTERN NORTH DAKOTA  *****

CITY           SKY/WX    TMP DP  RH WIND       PRES   REMARKS
GRAND FORKS    CLOUDY    36  28  73 NE12      30.23R
GRAND FRKS AFB CLOUDY    34  28  78 NE9       30.23S
DEVILS LAKE    CLOUDY    33  26  75 NE8       30.21F
FARGO          CLOUDY    39  32  76 N20       30.18S
WAHPETON ARPT  MOCLDY    41  32  70 N13G23    30.16S
$$

 ***** WEATHER ACROSS CENTRAL AND WESTERN NORTH DAKOTA  *****

CITY           SKY/WX    TMP DP  RH WIND       PRES   REMARKS
BISMARCK       FAIR      47  35  63 E9        30.16F
MINOT          FAIR      40  29  64 E12       30.16F
JAMESTOWN      CLOUDY    36  30  79 N10       30.18S
MINOT AFB      FAIR      36  29  74 SE13      30.15F
GARRISON         N/A     42  32  67 E8        30.14F
WILLISTON      FAIR      57  32  38 SE14      30.06F
DICKINSON      FAIR      56  33  42 S7        30.05F
HETTINGER      FAIR      56  34  43 E6        30.09F
$$

 *****  OTHER AIRPORT OBSERVATIONS IN OUR AREA  *****

CITY           SKY/WX    TMP DP  RH WIND       PRES   REMARKS
WALHALLA       NOT AVBL
GRAFTON AIRPOR CLOUDY    34  28  80 N10       30.25S
VALLEY CITY AR CLOUDY    36  32  87 N13       30.21R
CANDO          NOT AVBL
CAVALIER APRT    N/A     34  25  69 N9        30.24S
GWINNER        CLEAR     45  34  65 MISG      30.16S
SHEYENNE NWR     N/A     41  30  64 NE14      29.95S
ROLLA          CLOUDY    30  27  86 NE5       30.20F
 ***** THE ABOVE OBSERVATIONS ARE NON NWS ARE NOT QUALITY
       CONTROLLED AND MAY MIS-REPORT RAIN FOR SNOW...
$$

  *****  WEATHER ACROSS NORTHERN MINNESOTA  *****

CITY           SKY/WX    TMP DP  RH WIND       PRES   REMARKS
FLAG ISLAND    CLOUDY    34  25  69 N9        30.21S
WARROAD        CLOUDY    36  27  69 E6        30.21S
ROSEAU         FAIR      37  28  70 N7        30.21S
HALLOCK        CLOUDY    36  30  80 N10       30.23S
THF RVR FALLS  CLOUDY   N/A N/A N/A N12       30.20R
BAUDETTE       CLOUDY    39  25  57 N10       30.17S
WASKISH        CLOUDY    39  30  70 CALM      30.16S
CROOKSTON      CLOUDY    36  30  80 N12       30.22S
STEPHEN NDAWN    N/A     36  30  80 NW12        N/A
GREENBUSH NDAW   N/A     34  28  80 NE6         N/A
$$
  *****  WEATHER ACROSS CENTRAL AND WEST MINNESOTA  *****

CITY           SKY/WX    TMP DP  RH WIND       PRES   REMARKS
FOSSTON        CLOUDY    39  30  70 NW7       30.17R
BEMIDJI        CLOUDY    40  30  66 N8        30.14S
PARK RAPIDS    FAIR      44  29  55 NE7       30.13R
ELBOW LAKE     MOCLDY    44  34  68 W8        30.13R
WADENA         PTSUNNY   43  32  65 N8        30.12R
DETROIT LAKES  FAIR      43  32  65 N6        30.15R
MOORHEAD       PTSUNNY   37  34  87 N16       30.19R
FERGUS FALLS   FAIR      43  30  61 N9        30.17R
MORRIS MN      FAIR      45  36  70 NE7       30.13R
STAPLES        PTSUNNY   43  30  61 NE8       30.13R
$$
  *****  WEATHER ELSEWHERE ACROSS MINNESOTA  *****

CITY           SKY/WX    TMP DP  RH WIND       PRES   REMARKS
DULUTH         CLOUDY    38  34  85 N7        30.12R
INTRNTL FALLS  CLOUDY    39  26  59 NE7       30.16S
ELY            CLOUDY    37  30  75 CALM      30.13S
CLOQUET        CLOUDY    39  34  81 N5        30.12R
WHEATON        FAIR      43  32  65 N10       30.17R
BRAINERD       CLOUDY    40  32  73 NE9       30.13R
HIBBING        CLOUDY    37  33  85 NE7       30.13R
ALEXANDRIA     CLOUDY    43  34  70 N8        30.12S
SAINT CLOUD    CLOUDY    40  34  79 N14       30.11F
MINNEAPOLIS    CLOUDY    45  36  70 N13       30.07F
$$

  *****  WEATHER ACROSS SOUTH DAKOTA  *****

CITY           SKY/WX    TMP DP  RH WIND       PRES   REMARKS
SIOUX FALLS    CLOUDY    42  37  82 N17G24    30.07S
BROOKINGS      CLOUDY    37  34  87 N12       30.11R
WATERTOWN      CLOUDY    38  33  82 NE13      30.13R
HURON          FAIR      47  36  65 NE15      30.12F
SISSETON         N/A     45  36  70 N17       30.14R
ABERDEEN       FAIR      47  31  53 NE9       30.15F
MITCHELL       PTSUNNY   48  38  68 N17       30.10F
PIERRE         FAIR      58  32  37 E10       30.09F
MOBRIDGE       FAIR      57  32  38 E9        30.09F
RAPID CITY     PTSUNNY   59  30  33 NW7       30.07F
$$

  *****  SOME WEATHER IN NEARBY STATES *****

CITY           SKY/WX    TMP DP  RH WIND       PRES   REMARKS
GLASGOW MT     FAIR      64  26  23 S15       29.92F
GREAT FALLS MT FAIR      65  16  15 S24G31    29.78F
CHEYENNE WY    FAIR      49  22  34 N16G26    30.13S
SCOTTSBLUFF NE PTSUNNY   56  27  32 N14G23    30.09F
OMAHA NE       CLOUDY    47  42  83 N18       29.91F
DES MOINES IA  CLOUDY    50  47  89 N6        29.94R FOG
DAVENPORT IA   FAIR      73  42  32 SW18      29.92R
CHICAGO IL     CLOUDY    80  41  24 W15G24    29.88S
EAU CLAIRE WI  CLOUDY    42  38  85 N5        30.05R
LA CROSSE WI   CLOUDY    44  40  85 NE7       30.03R FOG
$$

  *****  SOME NATIONAL WEATHER *****

CITY           SKY/WX    TMP DP  RH WIND       PRES   REMARKS
LA GUARDIA NY  PTSUNNY   55  31  39 SW14G22   30.14F
RALEIGH NC     FAIR      70  46  42 S15G22    30.36F
ATLANTA GA     PTSUNNY   72  48  42 SE10G20   30.31F
NEW ORLEANS LA PTSUNNY   79  64  60 SE24      30.16F
OKLAHOMA CITY  FAIR      78  26  14 S26G35    29.67F
ALBUQUERQUE NM FAIR      65  22  19 N18G28    30.04F
SALT LAKE CITY FAIR      56  32  40 S13       30.14F
LOS ANGELES CA FAIR      64  50  60 W14       30.21F
BOISE ID       CLOUDY    50  40  68 E26G35    29.96F
SEATTLE WA     LGT RAIN  51  43  74 SW13      29.83R
$$

*** WEATHER ACROSS MANITOBA...SASKATCHEWAN AND ONTARIO ***
                ***ONTARIO***

CITY           SKY/WX    TMP DP  RH WIND       PRES   REMARKS
GERALDTON      MOSUNNY   32   7  34 NE15G22   30.17R WCI  22
THUNDER BAY    CLOUDY    39  25  56 NE9G18    30.17R
SIOUX LOOKOUT  MOSUNNY   34  18  51 N3        30.19S
TORONTO        CLOUDY    54  43  66 SE5       29.91R
BIG TROUT LK   SUNNY     16  -4  41 NW10      30.35F WCI   3
PICKLE LAKE    SUNNY     28  -6  22 NE8       30.25R WCI  20
DRYDEN         CLOUDY    34  21  60 E7        30.19R
KENORA         PTSUNNY   32  23  69 E8        30.21R WCI  25
$$
                *** MANITOBA***

CITY           SKY/WX    TMP DP  RH WIND       PRES   REMARKS
BRANDON        CLOUDY    30  23  74 E8        30.22F WCI  23
DAUPHIN        CLOUDY    32  23  69 E6        30.23F
ISLAND LAKE    MOSUNNY   19   0  42 SE3       30.34F
PILOT MOUND      N/A     30  23  74 NE5         N/A
THE PAS        CLOUDY    19   7  58 E12       30.24F WCI   7
THOMPSON       MOSUNNY   16  -9  32 S5        30.33F WCI   9
WINNIPEG       CLOUDY    32  25  74 NE8       30.26S WCI  25
LYNN LAKE      PTSUNNY   19   5  53 SE8       30.20F WCI   9
CHURCHILL      SUNNY      1  -9  60 NW7       30.42F WCI -11
GILLAM         PTSUNNY   10  -9  40 NW5       30.41F WCI   2
$$
                ***SASKATCHEWAN***

CITY           SKY/WX    TMP DP  RH WIND       PRES   REMARKS
ESTEVAN        MOSUNNY   37  32  81 E16       30.10F
KINDERSLEY     CLOUDY    46  32  57 SE16      29.85F
LLOYDMINSTER   CLOUDY    34  30  86 E18       29.87F WCI  23
PRINCE ALBERT  PTSUNNY   34  23  64 E14       30.08F WCI  24
REGINA         MOSUNNY   43  36  75 SE22G29   30.02F
YORKTON        MOSUNNY   34  25  69 SE13G20   30.13F WCI  25
N. BATTLEFORD  SUNNY     41  28  60 SE18G26   29.96F
LA RONGE       PTSUNNY   32  21  64 SE12      30.09F WCI  23
SASKATOON      CLOUDY    43  28  56 E15G21    30.00F
SWIFT CURRENT  MOSUNNY   55  27  33 S18       29.86F
$$
NOTE: THESE ARE AUTOMATED STATIONS WITH LIMITED QUALITY CONTROL
      "FAIR" INDICATES FEW OR NO CLOUDS BELOW 12,000 FEET WITH NO
      SIGNIFICANT WEATHER AND/OR OBSTRUCTIONS TO VISIBILITY.
      SKY/WX - SKY CONDITION AND SIGNIFICANT WEATHER.
      TMP - AIR TEMPERATURE.    DP   - DEWPOINT TEMPERATURE.
      RH  - RELATIVE HUMIDITY.  PRES - PRESSURE.
      HX  - HEAT INDEX.         WCI  - WIND CHILL INDEX.
$



USA.gov is the U.S. government's official web portal to all federal, state and local government web resources and services.